Flag for Marshall Islands Weather past 2 weeks in Kwajalein, Marshall Islands

Now
84 °F

Sunny.


Feels Like: 92 °F
Forecast: 80 / 86 °F
Wind: 12 mph from East

Location: Kwajalein / Bucholz

Current Time: Jul 25, 2014 at 11:25:45 AM

Latest Report: Jul 25, 2014 at 11:00 AM


Visibility: 10 mi

Pressure: 29.86 "Hg

Humidity: 76%

Dew point: 76 °F

Location of KwajaleinLocation

Historic Weather in Kwajalein — Graph

°F

Kwajalein temperature yesterday

Maximum temperature yesterday: 89 °F (at 1:20 PM)
Minimum temperature yesterday: 83 °F (at 6:00 AM)
Average temperature yesterday: 85 °F

Past Weeks' High & Low Weather Summary

 TemperatureHumidityPressure
High89 °F (Jul 24, 1:20 PM)90% (Jul 11, 4:20 AM)29.89 "Hg (Jul 11, 4:20 AM)
Low77 °F (Jul 11, 7:20 AM)61% (Jul 24, 12:40 PM)29.72 "Hg (Jul 23, 4:00 PM)
Average83 °F75%29.81 "Hg
* Reported Jul 10 10:00 AM — Jul 25 10:20 AM, Kwajalein, Weather by CustomWeather, © 2014

Note: Actual official high and low records may vary slightly from our data, if they occured in-between our weather recording intervals... More about our weather records

Advertising

Kwajalein weather history for previous 24 hours

 ConditionsComfort  
Time TempWeatherWind HumidityBarometerVisibility
10:20 AM
Jul 25
82 °FSunny.9 mph79%29.86 "Hg10 mi
10:00 AM82 °FSunny.14 mph80%29.87 "Hg10 mi
9:20 AM81 °FScattered clouds.14 mph82%29.87 "Hg10 mi
9:00 AM80 °FScattered clouds.16 mph82%29.86 "Hg10 mi
8:40 AM80 °FLight rain. Scattered clouds.14 mph83%29.85 "Hg10 mi
8:20 AM80 °FScattered clouds.12 mph83%29.85 "Hg10 mi
8:00 AM80 °FRain. Broken clouds.12 mph84%29.85 "Hg10 mi
7:40 AM80 °FScattered clouds.15 mph83%29.84 "Hg10 mi
7:20 AM80 °FScattered clouds.17 mph84%29.83 "Hg10 mi
7:00 AM80 °FBroken clouds.22 mph85%29.83 "Hg10 mi
6:40 AM80 °FScattered clouds.18 mph85%29.83 "Hg10 mi
6:20 AM80 °FPartly cloudy.16 mph86%29.82 "Hg10 mi
6:00 AM80 °FPartly cloudy.20 mph87%29.81 "Hg10 mi
5:40 AM80 °FLight rain. Partly cloudy.22 mph86%29.80 "Hg7 mi
5:20 AM80 °FPassing clouds.9 mph85%29.81 "Hg10 mi
5:00 AM81 °FRain. Mostly cloudy.9 mph83%29.80 "Hg7 mi
4:40 AM82 °FOvercast.14 mph81%29.80 "Hg10 mi
4:20 AM82 °FPassing clouds.14 mph80%29.80 "Hg10 mi
4:00 AM82 °FPassing clouds.9 mph80%29.80 "Hg10 mi
3:40 AM82 °FPassing clouds.12 mph80%29.80 "Hg10 mi
3:20 AM81 °FPartly cloudy.12 mph81%29.80 "Hg10 mi
3:00 AM82 °FPartly cloudy.13 mph80%29.81 "Hg10 mi
2:40 AM82 °FPassing clouds.12 mph78%29.81 "Hg10 mi
2:20 AM82 °FPassing clouds.8 mph78%29.81 "Hg10 mi
2:00 AM82 °FLight rain. Partly cloudy.6 mph77%29.82 "Hg7 mi
1:40 AM83 °FPassing clouds.9 mph75%29.83 "Hg10 mi
1:20 AM83 °FPassing clouds.10 mph74%29.84 "Hg10 mi
1:00 AM83 °FPassing clouds.12 mph74%29.85 "Hg10 mi
12:40 AM83 °FClear.12 mph74%29.86 "Hg10 mi
12:20 AM83 °FClear.12 mph73%29.86 "Hg10 mi
12:00 AM83 °FPassing clouds.12 mph73%29.87 "Hg10 mi
11:40 PM
Jul 24
83 °FPassing clouds.10 mph74%29.87 "Hg10 mi
11:20 PM84 °FPassing clouds.10 mph73%29.87 "Hg10 mi
11:00 PM84 °FClear.10 mph73%29.87 "Hg10 mi
10:40 PM84 °FPassing clouds.12 mph73%29.87 "Hg10 mi
10:20 PM84 °FPassing clouds.12 mph73%29.87 "Hg10 mi
10:00 PM84 °FClear.13 mph73%29.86 "Hg10 mi
9:40 PM84 °FPassing clouds.13 mph74%29.86 "Hg10 mi
9:20 PM84 °FClear.12 mph74%29.85 "Hg10 mi
9:00 PM84 °FClear.12 mph74%29.85 "Hg10 mi
8:40 PM83 °FPassing clouds.14 mph74%29.84 "Hg10 mi
8:20 PM83 °FPassing clouds.13 mph74%29.83 "Hg10 mi
8:00 PM84 °FClear.10 mph73%29.83 "Hg10 mi
7:40 PM84 °FClear.10 mph73%29.82 "Hg10 mi
7:20 PM84 °FPassing clouds.12 mph73%29.82 "Hg10 mi
7:00 PM84 °FScattered clouds.14 mph73%29.81 "Hg10 mi
6:40 PM84 °FScattered clouds.12 mph73%29.80 "Hg10 mi
6:20 PM85 °FScattered clouds.13 mph72%29.80 "Hg10 mi
5:40 PM85 °FSunny.13 mph73%29.78 "Hg10 mi
5:20 PM85 °FSunny.12 mph71%29.78 "Hg10 mi
5:00 PM86 °FSunny.12 mph69%29.78 "Hg10 mi
4:40 PM87 °FBroken clouds.13 mph67%29.77 "Hg10 mi
4:20 PM87 °FLight rain. Broken clouds.14 mph66%29.77 "Hg10 mi
4:00 PM88 °FScattered clouds.9 mph64%29.77 "Hg10 mi
3:20 PM88 °FScattered clouds.8 mph62%29.77 "Hg10 mi
3:00 PM88 °FScattered clouds.8 mph62%29.77 "Hg10 mi
2:40 PM89 °FScattered clouds.8 mph61%29.78 "Hg10 mi
2:20 PM89 °FScattered clouds.10 mph61%29.78 "Hg10 mi
2:00 PM89 °FScattered clouds.9 mph61%29.79 "Hg10 mi
1:20 PM89 °FSunny.8 mph61%29.80 "Hg10 mi
1:00 PM89 °FSunny.8 mph61%29.80 "Hg10 mi
12:40 PM89 °FScattered clouds.9 mph61%29.81 "Hg10 mi
12:20 PM89 °FScattered clouds.10 mph62%29.82 "Hg10 mi
12:00 PM88 °FSunny.8 mph62%29.83 "Hg10 mi
11:20 AM88 °FScattered clouds.9 mph64%29.84 "Hg10 mi
11:00 AM87 °FScattered clouds.7 mph66%29.84 "Hg10 mi
Weather by CustomWeather, © 2014

See weather overviewHow to use our weather pages